Location: Newark
(49.8969°N, 3.3422°E)
Time: 02:53:28
(UTC+00:00)

Transit 4A - All Passes

Search period start: 20 January 2020 00:00
Search period end: 30 January 2020 00:00
Orbit: 871 x 973 km, 66.8° (Epoch: 19 January)

Date Brightness Start Highest point End Pass type
(mag) Time Alt. Az. Time Alt. Az. Time Alt. Az.
20 Jan - 07:06:04 10° S 07:11:44 44° ESE 07:17:19 10° NE daylight
20 Jan - 08:52:22 10° WSW 08:58:07 45° NW 09:03:47 10° NNE daylight
20 Jan - 10:41:57 10° WNW 10:45:59 18° NNW 10:49:59 10° NNE daylight
20 Jan - 12:31:17 10° NNW 12:34:46 16° N 12:38:13 10° NE daylight
20 Jan - 14:17:54 10° NNW 14:23:04 31° NE 14:28:12 10° E daylight
20 Jan - 16:04:07 10° NW 16:09:57 74° WSW 16:15:46 10° SSE daylight
20 Jan - 17:52:26 10° WNW 17:55:17 14° WSW 17:58:10 10° SW visible
21 Jan - 05:33:55 10° ESE 05:35:45 11° E 05:37:34 10° E visible
21 Jan - 07:15:01 10° SSW 07:20:58 62° ESE 07:26:47 10° NE daylight
21 Jan - 09:02:12 10° WSW 09:07:40 35° NW 09:13:03 10° NNE daylight
21 Jan - 10:52:08 10° NW 10:55:49 17° NNW 10:59:28 10° NNE daylight
21 Jan - 12:40:50 10° NNW 12:44:36 17° NNE 12:48:21 10° NE daylight
21 Jan - 14:27:12 10° NNW 14:32:39 39° NE 14:38:05 10° ESE daylight
21 Jan - 16:13:33 10° NW 16:19:12 53° WSW 16:24:51 10° SSE daylight
22 Jan - 05:40:56 10° SE 05:44:43 17° ESE 05:48:27 10° ENE visible
22 Jan - 07:24:13 10° SSW 07:30:15 85° ESE 07:36:11 10° NE daylight
22 Jan - 09:12:11 10° W 09:17:17 29° NNW 09:22:20 10° NNE daylight
22 Jan - 11:02:16 10° NW 11:05:40 15° N 11:09:03 10° NNE daylight
22 Jan - 12:50:17 10° NNW 12:54:25 19° NNE 12:58:32 10° ENE daylight
22 Jan - 14:36:28 10° NNW 14:42:10 51° NE 14:47:50 10° ESE daylight
22 Jan - 16:23:05 10° NW 16:28:23 37° WSW 16:33:41 10° S daylight
23 Jan - 05:48:58 10° SSE 05:53:45 25° ESE 05:58:28 10° NE visible
23 Jan - 07:33:36 10° SW 07:39:36 72° NW 07:45:31 10° NE daylight
23 Jan - 09:22:15 10° W 09:26:58 24° NNW 09:31:38 10° NNE daylight
23 Jan - 11:12:16 10° NW 11:15:33 15° N 11:18:49 10° NNE daylight
23 Jan - 12:59:38 10° NNW 13:04:10 22° NNE 13:08:41 10° ENE daylight
23 Jan - 14:45:46 10° NNW 14:51:36 68° NE 14:57:25 10° SE daylight
23 Jan - 16:32:46 10° NW 16:37:30 26° WSW 16:42:14 10° SSW daylight
24 Jan - 05:57:28 10° S 06:02:52 35° ESE 06:08:10 10° NE visible
24 Jan - 07:43:10 10° SW 07:49:02 54° NW 07:54:49 10° NNE daylight
24 Jan - 09:32:25 10° WNW 09:36:42 20° NNW 09:40:58 10° NNE daylight
24 Jan - 11:22:06 10° NNW 11:25:26 15° N 11:28:46 10° NE daylight
24 Jan - 13:08:57 10° NNW 13:13:53 27° NNE 13:18:46 10° E daylight
24 Jan - 14:55:06 10° NW 15:00:58 89° SW 15:06:50 10° SE daylight
24 Jan - 16:42:44 10° WNW 16:46:32 18° WSW 16:50:21 10° SSW daylight
25 Jan - 06:06:16 10° S 06:12:02 50° ESE 06:17:43 10° NE visible
25 Jan - 07:52:54 10° WSW 07:58:32 41° NW 08:04:06 10° NNE daylight
25 Jan - 09:42:37 10° WNW 09:46:30 18° NNW 09:50:22 10° NNE daylight
25 Jan - 11:31:44 10° NNW 11:35:18 16° N 11:38:50 10° NE daylight
25 Jan - 13:18:14 10° NNW 13:23:30 33° NE 13:28:45 10° E daylight
25 Jan - 15:04:29 10° NW 15:10:16 66° WSW 15:16:03 10° SSE daylight
25 Jan - 16:53:26 10° W 16:55:30 12° WSW 16:57:35 10° WSW daylight
26 Jan - 04:33:13 10° SE 04:35:57 13° ESE 04:38:40 10° ENE visible
26 Jan - 06:15:19 10° SSW 06:21:17 70° ESE 06:27:09 10° NE visible
26 Jan - 08:02:47 10° W 08:08:07 33° NW 08:13:22 10° NNE daylight
26 Jan - 09:52:48 10° NW 09:56:21 16° N 09:59:53 10° NNE daylight
26 Jan - 11:41:15 10° NNW 11:45:08 18° NNE 11:49:00 10° ENE daylight
26 Jan - 13:27:31 10° NNW 13:33:04 43° NE 13:38:37 10° ESE daylight
26 Jan - 15:13:57 10° NW 15:19:30 46° WSW 15:25:03 10° S daylight
27 Jan - 04:40:46 10° SSE 04:44:57 20° ESE 04:49:05 10° ENE visible
27 Jan - 06:24:34 10° SW 06:30:36 87° NW 06:36:32 10° NE visible
27 Jan - 08:12:48 10° W 08:17:45 26° NNW 08:22:40 10° NNE daylight
27 Jan - 10:02:53 10° NW 10:06:13 15° N 10:09:32 10° NNE daylight
27 Jan - 11:50:39 10° NNW 11:54:56 20° NNE 11:59:11 10° ENE daylight
27 Jan - 13:36:48 10° NNW 13:42:33 56° NE 13:48:18 10° SE daylight
27 Jan - 15:23:32 10° NW 15:28:39 33° WSW 15:33:47 10° S daylight
28 Jan - 04:49:00 10° SSE 04:54:01 28° ESE 04:58:57 10° NE visible
28 Jan - 06:34:02 10° SW 06:39:59 65° NW 06:45:51 10° NNE visible
28 Jan - 08:22:55 10° WNW 08:27:28 22° NNW 08:31:58 10° NNE daylight
28 Jan - 10:12:49 10° NNW 10:16:06 15° N 10:19:21 10° NE daylight
28 Jan - 11:59:58 10° NNW 12:04:39 24° NNE 12:09:19 10° E daylight
28 Jan - 13:46:07 10° NW 13:51:58 76° NE 13:57:50 10° SE daylight
28 Jan - 15:33:18 10° WNW 15:37:44 23° WSW 15:42:12 10° SSW daylight
29 Jan - 04:57:37 10° S 05:03:09 40° ESE 05:08:36 10° NE visible
29 Jan - 06:43:39 10° WSW 06:49:27 49° NW 06:55:08 10° NNE visible
29 Jan - 08:33:05 10° WNW 08:37:13 19° NNW 08:41:20 10° NNE daylight
29 Jan - 10:22:34 10° NNW 10:25:58 15° N 10:29:21 10° NE daylight
29 Jan - 12:09:17 10° NNW 12:14:20 29° NE 12:19:23 10° E daylight
29 Jan - 13:55:28 10° NW 14:01:19 81° WSW 14:07:10 10° SSE daylight
29 Jan - 15:43:25 10° WNW 15:46:45 16° WSW 15:50:06 10° SW daylight
